FW3090 Weather Reports


time (UTC)temp
C
wind
direction
speed
KPH
gust
KPH
rain 1hr
cm
rain 24hr
cm
rain mn
cm
humidity
%
barometer
mb
20260503030923 12 244 0.0 3.2 0.00 0.00 0.00 57 1011.1
20260503030417 11 244 0.0 1.6 0.00 0.00 0.00 59 1011.1
20260503025910 11 244 0.0 4.8 0.00 0.00 0.00 61 1011.3
20260503025405 11 244 0.0 4.8 0.00 0.00 0.00 56 1011.2
20260503024858 11 219 0.0 3.2 0.00 0.00 0.00 59 1011.3
20260503024614 11 219 1.6 3.2 0.00 0.00 0.00 63 1011.4
20260503023846 11 219 0.0 3.2 0.00 0.00 0.00 61 1011.4
20260503023341 12 219 0.0 3.2 0.00 0.00 0.00 60 1011.3
20260503022834 12 219 0.0 3.2 0.00 0.00 0.00 56 1011.4
20260503022329 12 234 0.0 0.0 0.00 0.00 0.00 51 1011.5
20260503021823 12 234 0.0 0.0 0.00 0.00 0.00 57 1011.5
20260503021316 12 234 0.0 0.0 0.00 0.00 0.00 58 1011.5
20260503020811 12 234 0.0 3.2 0.00 0.00 0.00 54 1011.5
20260503020304 13 234 1.6 4.8 0.00 0.00 0.00 55 1011.4
20260503015759 13 234 1.6 4.8 0.00 0.00 0.00 51 1011.4
20260503015731 13 232 1.6 3.2 0.00 0.00 0.00 48 1011.4
20260503014747 14 232 1.6 3.2 0.00 0.00 0.00 49 1011.4
20260503014241 14 248 1.6 6.4 0.00 0.00 0.00 44 1011.4
20260503013734 14 248 3.2 6.4 0.00 0.00 0.00 45 1011.4
20260503013229 13 250 3.2 4.8 0.00 0.00 0.00 46 1011.4
20260503012951 13 265 1.6 4.8 0.00 0.00 0.00 50 1011.4
20260503012218 13 266 0.0 3.2 0.00 0.00 0.00 52 1011.4
20260503011710 13 265 0.0 3.2 0.00 0.00 0.00 50 1011.5
20260503011205 14 273 0.0 3.2 0.00 0.00 0.00 48 1011.5
20260503010659 14 273 0.0 3.2 0.00 0.00 0.00 47 1011.3
20260503010153 14 273 0.0 0.0 0.00 0.00 0.00 46 1011.4
20260503005646 14 273 0.0 0.0 0.00 0.00 0.00 49 1011.4
20260503005141 14 273 0.0 0.0 0.00 0.00 0.00 49 1011.6
20260503004634 14 273 0.0 0.0 0.00 0.00 0.00 48 1011.6
20260503004129 15 273 0.0 0.0 0.00 0.00 0.00 44 1011.7
20260503003844 15 273 0.0 0.0 0.00 0.00 0.00 39 1011.7
20260503003117 15 273 0.0 3.2 0.00 0.00 0.00 38 1011.8
20260503002617 15 273 0.0 4.8 0.00 0.00 0.00 37 1011.8
20260503002117 15 273 0.0 4.8 0.00 0.00 0.00 37 1011.8
20260503001617 16 284 0.0 1.6 0.00 0.00 0.00 37 1011.9
20260503001117 16 284 1.6 4.8 0.00 0.00 0.00 37 1011.9
20260503000617 16 284 3.2 4.8 0.00 0.00 0.00 37 1012.0
20260503000115 16 259 3.2 4.8 0.00 0.00 0.00 36 1011.9
20260502235839 16 272 3.2 4.8 0.00 0.00 0.00 38 1012.1
20260502235113 16 273 4.8 6.4 0.00 0.00 0.00 37 1012.2
20260502234613 16 273 4.8 11.3 0.00 0.00 0.00 36 1012.2
20260502234113 16 275 6.4 12.9 0.00 0.00 0.00 36 1012.3
20260502233613 16 300 6.4 12.9 0.00 0.00 0.00 33 1012.3
20260502233113 16 293 4.8 9.7 0.00 0.00 0.00 35 1012.4
20260502232613 16 265 4.8 9.7 0.00 0.00 0.00 34 1012.5
20260502232108 16 267 6.4 11.3 0.00 0.00 0.00 35 1012.5
20260502231609 16 254 8.0 12.9 0.00 0.00 0.00 34 1012.5
20260502231113 16 257 9.7 16.1 0.00 0.00 0.00 33 1012.6
20260502230608 16 280 8.0 16.1 0.00 0.00 0.00 33 1012.6
20260502230108 16 303 8.0 14.5 0.00 0.00 0.00 32 1012.7
20260502225608 16 246 8.0 17.7 0.00 0.00 0.00 32 1012.6
20260502225108 17 269 8.0 17.7 0.00 0.00 0.00 32 1012.6
20260502224608 17 252 6.4 14.5 0.00 0.00 0.00 30 1012.7
20260502224110 17 270 6.4 16.1 0.00 0.00 0.00 31 1012.7
20260502223604 17 271 8.0 16.1 0.00 0.00 0.00 31 1012.8
20260502223548 17 209 8.0 16.1 0.00 0.00 0.00 29 1012.8
20260502222604 17 278 8.0 16.1 0.00 0.00 0.00 29 1012.8
20260502222104 17 270 8.0 16.1 0.00 0.00 0.00 31 1012.9
20260502221605 17 292 8.0 16.1 0.00 0.00 0.00 31 1012.8
20260502221104 17 295 6.4 12.9 0.00 0.00 0.00 33 1012.9
20260502220602 17 239 8.0 16.1 0.00 0.00 0.00 32 1013.0
20260502215602 17 222 8.0 17.7 0.00 0.00 0.00 33 1013.1
20260502215056 17 267 8.0 16.1 0.00 0.00 0.00 31 1013.3
20260502214550 17 259 9.7 19.3 0.00 0.00 0.00 31 1013.2
20260502214043 17 273 11.3 19.3 0.00 0.00 0.00 30 1013.2
20260502213538 17 292 9.7 17.7 0.00 0.00 0.00 30 1013.3
20260502213032 17 277 11.3 19.3 0.00 0.00 0.00 30 1013.4
20260502212525 17 259 11.3 19.3 0.00 0.00 0.00 31 1013.6
20260502212019 17 286 9.7 19.3 0.00 0.00 0.00 29 1013.6
20260502211514 17 277 8.0 19.3 0.00 0.00 0.00 33 1013.7
20260502211008 17 249 8.0 17.7 0.00 0.00 0.00 29 1013.7
20260502210731 17 267 11.3 17.7 0.00 0.00 0.00 30 1013.8
20260502205956 17 263 9.7 17.7 0.00 0.00 0.00 31 1013.8
20260502205450 17 246 8.0 17.7 0.00 0.00 0.00 28 1013.9
20260502205205 17 292 9.7 22.5 0.00 0.00 0.00 28 1013.9
20260502204438 17 344 11.3 22.5 0.00 0.00 0.00 32 1014.0
20260502203932 17 255 9.7 19.3 0.00 0.00 0.00 29 1014.2
20260502203425 17 209 11.3 17.7 0.00 0.00 0.00 28 1014.2
20260502202919 17 292 11.3 17.7 0.00 0.00 0.00 29 1014.3
20260502202414 17 279 11.3 17.7 0.00 0.00 0.00 30 1014.4
20260502202127 17 274 11.3 19.3 0.00 0.00 0.00 30 1014.5
20260502201402 17 241 9.7 19.3 0.00 0.00 0.00 30 1014.6
20260502200855 17 242 9.7 14.5 0.00 0.00 0.00 35 1014.6
20260502200350 17 238 11.3 24.1 0.00 0.00 0.00 31 1014.8
20260502195844 17 296 12.9 24.1 0.00 0.00 0.00 29 1014.7
20260502195337 17 238 12.9 20.9 0.00 0.00 0.00 28 1015.0
20260502194831 17 251 9.7 20.9 0.00 0.00 0.00 29 1015.0
20260502194325 17 226 8.0 16.1 0.00 0.00 0.00 30 1015.1
20260502193819 17 309 11.3 22.5 0.00 0.00 0.00 31 1015.2
20260502193313 17 306 9.7 22.5 0.00 0.00 0.00 28 1015.2
20260502192808 17 252 9.7 19.3 0.00 0.00 0.00 33 1015.4
20260502192525 17 301 9.7 20.9 0.00 0.00 0.00 29 1015.4
20260502191756 17 297 11.3 20.9 0.00 0.00 0.00 30 1015.6
20260502191251 17 286 11.3 20.9 0.00 0.00 0.00 30 1015.6
20260502191006 17 309 12.9 22.5 0.00 0.00 0.00 32 1015.7
20260502190237 17 309 14.5 24.1 0.00 0.00 0.00 29 1015.8
20260502185732 17 288 11.3 24.1 0.00 0.00 0.00 30 1015.8
20260502185226 17 309 9.7 22.5 0.00 0.00 0.00 28 1016.0
20260502184720 16 311 11.3 22.5 0.00 0.00 0.00 34 1016.1
20260502184214 16 225 11.3 22.5 0.00 0.00 0.00 32 1016.1
20260502183932 17 234 11.3 22.5 0.00 0.00 0.00 33 1016.1
20260502183202 17 285 11.3 22.5 0.00 0.00 0.00 33 1016.2
20260502182655 16 298 11.3 20.9 0.00 0.00 0.00 31 1016.2
20260502182149 16 279 9.7 19.3 0.00 0.00 0.00 30 1016.3
20260502181646 16 229 8.0 19.3 0.00 0.00 0.00 31 1016.3
20260502181138 15 295 9.7 17.7 0.00 0.00 0.00 37 1016.4
20260502180631 16 271 11.3 17.7 0.00 0.00 0.00 32 1016.5
20260502180125 16 285 9.7 19.3 0.00 0.00 0.00 33 1016.5
20260502170519 16 311 9.7 19.3 0.00 0.00 0.00 35 1017.3
20260502163950 15 315 11.3 20.9 0.00 0.00 0.00 36 1017.6
20260502163443 14 271 12.9 27.4 0.00 0.00 0.00 34 1017.5
20260502162937 13 301 14.5 27.4 0.00 0.00 0.00 33 1017.6
20260502162432 13 311 12.9 27.4 0.00 0.00 0.00 34 1017.8
20260502161926 14 317 12.9 27.4 0.00 0.00 0.00 36 1017.7
20260502161420 15 263 14.5 22.5 0.00 0.00 0.00 34 1017.7
20260502161135 14 252 11.3 27.4 0.00 0.00 0.00 34 1017.8
20260502160848 14 318 11.3 27.4 0.00 0.00 0.00 37 1018.0
20260502152322 12 298 6.4 17.7 0.00 0.00 0.00 43 1018.1
20260502151822 12 294 6.4 14.5 0.00 0.00 0.00 46 1018.2
20260502151322 12 297 6.4 14.5 0.00 0.00 0.00 48 1018.1
20260502150822 11 253 8.0 14.5 0.00 0.00 0.00 48 1018.2
20260502150322 11 221 8.0 14.5 0.00 0.00 0.00 47 1018.2
20260502130310 3 111 0.0 1.6 0.00 0.00 0.00 81 1019.1
20260502123757 1 111 1.6 3.2 0.00 0.00 0.00 85 1019.2
20260502123251 1 111 0.0 3.2 0.00 0.00 0.00 86 1019.3
20260502122744 1 111 0.0 3.2 0.00 0.00 0.00 86 1019.1
20260502122239 0 24 0.0 0.0 0.00 0.00 0.00 86 1019.2
20260502121732 0 24 0.0 0.0 0.00 0.00 0.00 87 1019.0
20260502121227 0 24 0.0 0.0 0.00 0.00 0.00 87 1019.0
20260502120722 0 24 0.0 0.0 0.00 0.00 0.00 87 1019.0
20260502120214 0 24 0.0 1.6 0.00 0.00 0.00 87 1019.1
20260502115932 0 24 0.0 0.0 0.00 0.00 0.00 86 1019.1
20260502115203 -1 24 0.0 0.0 0.00 0.00 0.00 86 1019.0
20260502114657 -1 24 0.0 0.0 0.00 0.00 0.00 86 1019.0
20260502114416 -1 24 0.0 0.0 0.00 0.00 0.00 85 1018.9
20260502113644 -1 24 0.0 0.0 0.00 0.00 0.00 85 1019.0
20260502113143 -1 24 0.0 0.0 0.00 0.00 0.00 85 1018.9
20260502112629 -1 24 0.0 0.0 0.00 0.00 0.00 85 1018.9
20260502112123 -1 24 0.0 0.0 0.00 0.00 0.00 85 1018.8
20260502111616 -1 24 0.0 0.0 0.00 0.00 0.00 85 1018.9
20260502111111 -1 24 0.0 0.0 0.00 0.00 0.00 84 1018.8
20260502110804 -1 24 0.0 0.0 0.00 0.00 0.00 84 1018.8
20260502110755 -1 24 0.0 0.0 0.00 0.00 0.00 84 1018.8
20260502105553 -1 24 0.0 0.0 0.00 0.00 0.00 84 1018.7
20260502105046 -1 24 0.0 0.0 0.00 0.00 0.00 84 1018.7
20260502104540 -1 24 0.0 0.0 0.00 0.00 0.00 83 1018.8
20260502104034 -1 24 0.0 0.0 0.00 0.00 0.00 83 1018.8
20260502103528 -1 24 0.0 0.0 0.00 0.00 0.00 83 1018.8
20260502103022 -1 24 0.0 0.0 0.00 0.00 0.00 83 1018.8
20260502102743 -1 24 0.0 0.0 0.00 0.00 0.00 83 1018.9
20260502102011 -1 24 0.0 0.0 0.00 0.00 0.00 83 1018.9
20260502101505 -1 24 0.0 0.0 0.00 0.00 0.00 83 1018.9
20260502101216 -1 24 0.0 0.0 0.00 0.00 0.00 83 1018.9
20260502100453 -1 24 0.0 0.0 0.00 0.00 0.00 83 1018.9
20260502090846 0 0 0.0 1.6 0.00 0.00 0.00 83 1018.9
20260502090341 0 0 0.0 1.6 0.00 0.00 0.00 83 1018.8
20260502071129 0 0 0.0 0.0 0.00 0.00 0.00 76 1018.8
20260502070623 0 0 0.0 0.0 0.00 0.00 0.00 76 1018.8
20260502070339 0 0 0.0 0.0 0.00 0.00 0.00 76 1018.9
20260502065836 1 0 0.0 0.0 0.00 0.00 0.00 77 1018.9
20260502065105 1 0 0.0 0.0 0.00 0.00 0.00 77 1018.9
20260502064558 1 0 0.0 0.0 0.00 0.00 0.00 77 1019.0
20260502064053 1 0 0.0 0.0 0.00 0.00 0.00 75 1018.9
20260502063552 1 0 0.0 0.0 0.00 0.00 0.00 75 1019.0
20260502063053 1 0 0.0 0.0 0.00 0.00 0.00 75 1018.9
20260502062553 1 0 0.0 0.0 0.00 0.00 0.00 75 1018.9
20260502062051 1 24 0.0 0.0 0.00 0.00 0.00 75 1019.0
20260502061551 1 24 0.0 0.0 0.00 0.00 0.00 75 1019.0
20260502061050 1 24 0.0 0.0 0.00 0.00 0.00 74 1019.0
20260502060813 1 24 0.0 0.0 0.00 0.00 0.00 74 1019.0
20260502060049 1 24 0.0 0.0 0.00 0.00 0.00 74 1018.9
20260502055549 1 24 0.0 1.6 0.00 0.00 0.00 74 1018.9
20260502055049 1 25 0.0 1.6 0.00 0.00 0.00 74 1018.9
20260502054808 1 26 0.0 0.0 0.00 0.00 0.00 73 1018.9
20260502054048 1 32 0.0 0.0 0.00 0.00 0.00 73 1018.9
20260502053548 2 26 0.0 0.0 0.00 0.00 0.00 73 1019.0
20260502053049 2 0 0.0 0.0 0.00 0.00 0.00 73 1018.9
20260502052548 2 0 0.0 0.0 0.00 0.00 0.00 74 1018.8
20260502052049 2 0 0.0 0.0 0.00 0.00 0.00 74 1018.8
20260502051549 2 0 0.0 0.0 0.00 0.00 0.00 71 1018.8
20260502051049 2 24 0.0 0.0 0.00 0.00 0.00 72 1018.9
20260502050549 2 24 0.0 0.0 0.00 0.00 0.00 71 1018.9
20260502050315 2 24 0.0 0.0 0.00 0.00 0.00 69 1018.7
20260502045541 2 24 0.0 0.0 0.00 0.00 0.00 69 1018.7
20260502045035 2 24 0.0 0.0 0.00 0.00 0.00 69 1018.6
20260502044529 2 24 0.0 0.0 0.00 0.00 0.00 69 1018.7
20260502044022 2 24 0.0 1.6 0.00 0.00 0.00 70 1018.7
20260502043516 2 24 0.0 1.6 0.00 0.00 0.00 70 1018.7
20260502043010 2 24 0.0 1.6 0.00 0.00 0.00 71 1018.6
20260502042504 2 24 0.0 1.6 0.00 0.00 0.00 70 1018.7
20260502042000 3 24 0.0 1.6 0.00 0.00 0.00 68 1018.7
20260502041452 3 24 0.0 0.0 0.00 0.00 0.00 69 1018.7
20260502040947 3 24 0.0 0.0 0.00 0.00 0.00 69 1018.7
20260502040441 3 24 0.0 3.2 0.00 0.00 0.00 69 1018.6
20260502040424 3 24 0.0 3.2 0.00 0.00 0.00 69 1018.7
20260502035429 3 24 0.0 3.2 0.00 0.00 0.00 69 1018.6
20260502034923 3 24 0.0 3.2 0.00 0.00 0.00 67 1018.6
20260502034417 3 24 0.0 0.0 0.00 0.00 0.00 66 1018.6
20260502033911 3 24 0.0 0.0 0.00 0.00 0.00 67 1018.5
20260502033406 3 24 0.0 0.0 0.00 0.00 0.00 64 1018.6
20260502032858 3 24 0.0 0.0 0.00 0.00 0.00 64 1018.6
20260502032352 3 24 0.0 0.0 0.00 0.00 0.00 65 1018.6
20260502031847 3 24 0.0 1.6 0.00 0.00 0.00 65 1018.7
20260502031340 3 24 0.0 1.6 0.00 0.00 0.00 65 1018.6